Погода в Лорето

Мексика     26°00′14″N   111°20′35″W
темп.,
°C
ветер,
м/с
пор.,
м/с
влажн.,
%
обл.,
%
осадки,
мм/ч
давл.,
гПа
погр.,
м
6 мая, чт
чт600:00+23з44610 0.0 101488
03:00+22з44570 0.0 1013109
06:00+22з44510 0.0 1014101
09:00+23сз00470 0.0 101665
12:00+23вюв43470 0.0 1016240
15:00+23вюв44540 0.0 1014266
18:00+24вюв33590 0.0 1012161
21:00+24ююз23590 0.0 101232
7 мая, пт
пт700:00+23з44490 0.0 101474
03:00+23з34420 0.0 101243
06:00+24з23400 0.0 101219
09:00+24св11430 0.0 101444
12:00+24в33420 0.0 1013195
15:00+24вюв34525 0.0 1012260
18:00+25юв445616 0.0 1010178
21:00+25зюз33482 0.0 101026
8 мая, сб
сб800:00+23з67473 0.0 101190
03:00+23з444696 0.0 101056
06:00+23з33415 0.0 101135
09:00+24з11460 0.0 101242
12:00+24в43360 0.0 1012231
15:00+25вюв67540 0.0 1010328
18:00+25юв68580 0.0 1009236
21:00+25зюз55470 0.0 101047
9 мая, вс
вс900:00+23з674827 0.0 1011100
03:00+22з56477 0.0 1010116
06:00+22з22455 0.0 101148
09:00+24ююв22425 0.0 101274
12:00+24вюв54455 0.0 1011283
15:00+24юв785584 0.0 1010348
18:00+25ююв796296 0.0 1008247
21:00+25зюз674291 0.0 100979
10 мая, пн
пн1000:00+23зюз684278 0.0 1010126
03:00+23з674072 0.0 1008117
06:00+22з553972 0.0 1009117
09:00+24зсз23395 0.0 101199
12:00+25вюв33330 0.0 1011229
15:00+25юв565287 0.0 1009293
18:00+25ююв685436 0.0 1008244
21:00+24зюз6743100 0.0 100988